Probability
52 48 42 39 45 42 52 48 45 39 35 42 35 32 35 39 26 26 35 19 3 3 3 3 3 3 6 0 0 3 10 10 10 10 10 10 6 6
52 45 48 42 42 42 45 52 48 39 32 32 39 35 45 23 19 39 39 23 16 6 3 3 3 3 0 0 0 0 0 0 0 3 3 3 3 3
42 42 45 52 48 42 45 42 42 39 32 32 35 39 39 45 32 42 32 29 23 10 6 3 3 3 0 0 0 0 0 0 0 0 0 3 3 3
39 39 35 32 39 42 42 39 42 35 32 29 32 32 42 39 32 32 26 23 26 16 6 3 3 0 0 0 0 0 0 0 0 0 0 0 0 0
32 35 35 32 32 29 32 35 39 32 32 32 32 35 35 32 26 26 23 26 16 16 10 6 3 0 0 0 0 0 0 0 0 0 0 0 0 0
35 32 35 35 35 35 29 32 35 32 29 29 26 26 32 29 26 26 29 29 23 16 13 10 3 0 0 0 0 0 0 0 0 0 0 0 0 0
32 32 32 29 29 26 29 32 32 29 29 29 23 23 23 23 26 29 26 29 29 13 13 13 6 3 3 0 0 0 0 0 0 0 0 0 0 0
35 35 32 29 26 23 16 16 16 26 26 26 19 19 23 23 26 23 26 19 16 16 16 13 6 6 10 13 3 0 0 0 0 0 0 0 0 0
32 35 29 26 26 26 23 23 13 10 13 19 19 23 23 26 23 23 23 19 10 6 13 10 13 10 10 10 3 0 0 0 0 0 0 0 0 0
32 32 35 32 26 26 26 23 23 26 23 19 16 19 23 19 23 19 19 16 13 16 13 10 10 10 10 3 3 0 0 0 0 0 0 0 0 0
29 29 35 35 26 19 23 29 26 26 23 16 16 13 13 16 16 13 16 13 10 10 16 13 10 10 10 10 3 0 0 0 0 0 0 0 0 0
29 32 16 23 13 10 13 23 23 26 23 19 19 13 10 13 13 10 10 10 6 10 10 10 10 10 10 6 3 0 0 0 0 0 0 0 0 0
16 19 10 6 6 6 6 13 13 10 10 10 13 16 16 16 10 10 10 10 13 10 10 10 10 10 10 10 3 3 0 0 0 0 0 0 0 0
13 16 13 6 3 3 3 6 6 6 10 10 10 16 16 16 10 16 13 13 13 10 10 10 10 10 6 6 6 0 0 0 0 0 0 0 0 0
6 6 6 6 3 3 0 0 0 6 10 10 10 13 16 16 16 16 16 16 16 16 10 13 13 6 6 6 6 0 0 3 3 0 0 0 0 0
3 6 3 0 0 3 6 0 0 6 10 10 6 10 13 10 13 13 13 13 16 16 13 16 16 16 6 6 6 3 0 0 0 0 0 0 0 0
3 6 6 10 6 6 6 3 3 10 10 6 10 13 10 10 13 16 16 16 10 10 6 13 13 16 13 10 3 6 0 3 3 3 0 0 0 0
0 6 3 6 6 6 6 6 6 10 13 10 6 10 10 10 10 10 10 13 6 6 10 10 10 13 13 13 6 3 6 3 3 3 3 0 0 0
0 10 10 10 13 16 16 13 13 16 16 13 13 10 13 10 10 10 6 6 10 6 6 10 10 10 6 3 6 3 3 0 3 3 3 3 0 0
0 6 10 10 13 6 6 10 10 10 13 10 13 13 13 13 10 6 6 6 6 6 6 6 10 10 10 3 3 6 0 0 3 3 3 3 0 0
3 3 10 10 6 6 6 3 3 3 3 6 3 6 6 6 0 3 6 6 3 3 3 6 6 6 6 6 3 6 3 0 0 3 3 3 0 0
6 6 6 3 3 6 3 3 3 3 3 3 3 3 0 0 0 3 3 3 3 3 3 3 3 6 6 3 0 0 3 6 0 0 0 0 0 0
0 3 6 3 6 6 3 3 3 3 3 3 0 0 0 0 0 3 3 3 3 3 0 0 0 0 0 0 0 0 0 3 3 3 0 0 0 0
Height
5862 5861 5859 5857 5855 5854 5852 5850 5849 5847 5846 5844 5843 5841 5840 5839 5837 5836 5835 5834 5833 5832 5831 5830 5829 5828 5828 5827 5826 5826 5825 5825 5824 5824 5824 5824 5825 5825
5859 5858 5856 5854 5852 5850 5848 5846 5844 5843 5841 5839 5838 5836 5834 5833 5832 5831 5829 5828 5827 5826 5825 5824 5823 5822 5822 5821 5820 5820 5819 5819 5818 5818 5818 5818 5819 5819
5856 5854 5852 5849 5847 5845 5843 5841 5839 5838 5836 5834 5833 5831 5829 5828 5826 5825 5823 5822 5821 5820 5820 5819 5818 5817 5816 5815 5814 5814 5813 5812 5812 5812 5812 5812 5812 5813
5852 5849 5847 5844 5842 5840 5838 5836 5834 5832 5830 5829 5827 5825 5823 5822 5820 5819 5817 5816 5815 5814 5813 5812 5811 5810 5809 5808 5807 5807 5806 5806 5805 5805 5805 5805 5805 5805
5847 5845 5842 5840 5837 5835 5832 5830 5828 5826 5823 5822 5821 5819 5817 5815 5813 5812 5810 5809 5807 5806 5806 5805 5804 5803 5802 5801 5800 5800 5799 5799 5799 5798 5798 5798 5798 5798
5842 5839 5837 5834 5831 5829 5826 5823 5821 5819 5817 5815 5813 5812 5810 5808 5806 5804 5803 5801 5800 5799 5798 5797 5796 5795 5794 5793 5792 5792 5791 5791 5791 5791 5790 5790 5790 5790
5836 5833 5831 5828 5825 5822 5819 5817 5814 5812 5810 5808 5806 5804 5802 5800 5798 5796 5795 5793 5792 5791 5790 5789 5788 5787 5786 5785 5785 5784 5783 5782 5782 5782 5782 5782 5782 5782
5830 5827 5824 5821 5818 5815 5812 5809 5807 5805 5803 5801 5799 5796 5794 5791 5789 5788 5786 5785 5784 5783 5781 5780 5779 5778 5777 5777 5776 5775 5774 5774 5774 5774 5774 5773 5773 5773
5823 5820 5817 5814 5811 5808 5805 5802 5800 5797 5795 5793 5790 5788 5786 5784 5782 5780 5778 5776 5775 5774 5772 5771 5770 5769 5768 5767 5767 5766 5765 5764 5764 5764 5764 5764 5764 5764
5815 5812 5809 5806 5803 5800 5797 5795 5792 5789 5787 5784 5782 5779 5777 5775 5773 5771 5769 5767 5765 5764 5762 5762 5761 5760 5759 5758 5757 5757 5756 5755 5755 5755 5755 5755 5755 5755
5806 5804 5800 5798 5795 5792 5788 5786 5783 5780 5777 5775 5772 5770 5767 5765 5763 5761 5759 5757 5755 5754 5752 5751 5751 5750 5749 5748 5748 5747 5747 5746 5746 5745 5745 5745 5745 5745
5797 5794 5791 5788 5785 5782 5779 5776 5774 5771 5768 5765 5763 5760 5757 5755 5752 5750 5748 5747 5745 5744 5742 5741 5740 5739 5739 5739 5737 5737 5737 5736 5735 5735 5735 5735 5735 5735
5787 5784 5781 5778 5775 5772 5769 5766 5764 5761 5758 5755 5753 5750 5747 5745 5742 5740 5737 5736 5734 5733 5732 5731 5730 5729 5729 5729 5728 5727 5727 5726 5726 5725 5725 5724 5724 5725
5776 5773 5770 5767 5764 5762 5759 5756 5753 5750 5748 5745 5743 5740 5737 5735 5732 5730 5727 5725 5724 5723 5722 5720 5719 5719 5718 5718 5718 5717 5717 5716 5716 5715 5715 5714 5714 5714
5764 5762 5759 5756 5753 5751 5748 5745 5742 5740 5737 5735 5732 5730 5727 5725 5722 5719 5717 5715 5714 5712 5711 5710 5709 5708 5707 5707 5707 5707 5706 5706 5705 5704 5704 5704 5704 5704
5753 5750 5747 5744 5742 5739 5737 5735 5732 5729 5726 5724 5721 5719 5717 5714 5712 5709 5707 5705 5704 5702 5701 5699 5698 5697 5696 5696 5695 5696 5695 5695 5695 5694 5694 5694 5693 5693
5743 5740 5737 5734 5731 5729 5726 5724 5721 5718 5716 5713 5710 5708 5705 5703 5701 5699 5697 5695 5694 5693 5691 5690 5688 5687 5686 5685 5685 5685 5684 5684 5684 5684 5683 5683 5683 5683
5732 5729 5726 5723 5720 5718 5715 5713 5710 5707 5704 5701 5699 5696 5694 5692 5690 5689 5687 5685 5683 5682 5680 5679 5678 5677 5676 5676 5675 5675 5674 5674 5673 5673 5672 5672 5673 5673
5721 5718 5715 5712 5709 5707 5704 5701 5699 5697 5694 5691 5688 5686 5684 5681 5679 5678 5677 5675 5673 5672 5671 5669 5668 5666 5666 5666 5666 5664 5663 5663 5662 5662 5662 5662 5662 5663
5711 5708 5705 5702 5699 5696 5693 5690 5688 5686 5683 5681 5678 5676 5674 5672 5670 5668 5667 5665 5663 5662 5661 5660 5658 5657 5656 5656 5655 5655 5653 5653 5652 5652 5652 5652 5652 5652
5702 5699 5696 5692 5689 5686 5683 5680 5678 5675 5673 5671 5668 5666 5664 5661 5660 5659 5657 5656 5654 5653 5652 5651 5649 5648 5646 5646 5645 5645 5644 5643 5643 5642 5642 5642 5642 5642
5693 5690 5686 5683 5680 5677 5674 5671 5668 5666 5663 5661 5659 5657 5655 5652 5651 5650 5648 5647 5646 5644 5643 5642 5640 5639 5637 5636 5635 5635 5634 5634 5633 5633 5632 5632 5631 5631
5684 5681 5677 5674 5671 5668 5665 5662 5659 5657 5654 5652 5650 5648 5647 5644 5642 5641 5640 5639 5637 5636 5634 5633 5631 5630 5628 5627 5626 5625 5625 5625 5624 5624 5624 5623 5623 5623
Wind_Speed
16 17 18 19 19 19 19 20 20 19 19 20 20 20 20 19 19 18 19 19 20 20 20 20 21 21 21 21 20 20 20 20 20 20 20 21 20 20
18 19 20 20 20 20 21 21 21 21 21 22 21 21 21 21 20 20 21 21 21 21 21 21 22 22 22 21 21 21 21 22 22 21 20 21 21 21
20 21 21 22 22 22 23 23 23 23 23 23 23 22 22 22 23 23 23 23 23 23 23 23 23 23 24 23 23 23 23 22 22 22 22 22 23 23
22 23 23 23 23 24 24 25 25 25 25 24 24 24 24 24 25 24 25 25 25 25 24 24 24 25 25 25 24 24 23 23 23 23 23 23 23 24
24 24 24 24 25 26 26 26 26 26 26 26 26 26 26 26 26 26 26 26 26 26 25 25 26 26 26 26 25 24 23 24 24 25 25 25 24 24
25 25 25 26 27 28 28 27 27 26 26 26 27 27 27 28 28 28 28 27 28 28 27 27 27 27 27 26 27 26 26 25 26 26 26 26 26 26
27 27 27 27 28 28 28 28 28 27 27 27 27 28 29 30 30 30 29 29 29 29 29 29 28 28 27 27 27 27 27 27 28 28 27 27 27 27
28 28 29 29 29 29 29 29 29 29 28 29 29 30 29 30 31 31 31 30 30 30 31 30 30 29 29 28 28 28 28 28 29 29 28 28 28 28
30 30 31 32 31 31 30 30 30 30 31 31 31 31 30 30 30 31 31 31 31 31 32 31 31 31 30 30 30 30 29 29 28 28 28 28 29 29
32 32 32 32 32 32 33 33 33 33 33 33 33 32 32 32 31 31 31 32 32 32 33 33 32 32 32 31 31 31 29 29 29 29 29 29 29 29
34 34 34 33 34 34 34 34 34 34 35 35 34 34 33 34 33 33 33 33 33 33 34 33 32 32 32 32 32 31 30 30 30 30 30 31 31 31
35 35 35 35 35 35 35 35 34 35 35 35 35 35 35 35 35 35 34 34 33 32 32 33 32 32 32 32 32 32 31 31 31 31 31 31 32 31
38 37 37 37 37 37 36 36 36 35 35 35 35 35 34 34 34 34 34 34 33 33 32 33 32 32 32 31 31 32 31 31 31 31 31 31 32 32
39 39 38 38 38 37 37 37 37 37 36 35 35 34 34 33 33 33 33 33 33 33 33 33 33 32 32 31 31 31 31 31 31 30 31 31 31 31
40 40 39 38 38 37 36 36 37 37 36 36 36 35 34 33 33 32 32 32 32 33 33 32 32 32 33 32 32 32 32 31 30 30 31 30 30 31
39 39 39 38 37 37 36 36 36 36 37 37 36 35 35 35 34 32 32 33 33 33 33 33 33 34 34 33 32 31 31 31 31 31 31 31 31 31
39 39 38 38 37 37 36 36 37 37 37 37 36 35 35 35 35 34 33 33 32 32 31 32 32 33 33 32 32 32 32 32 32 32 32 31 31 31
39 39 38 38 37 36 36 35 36 36 37 36 35 35 35 35 34 33 33 32 32 31 31 31 31 32 32 31 31 31 32 32 32 32 32 31 31 31
39 38 38 37 36 36 36 36 36 36 36 36 35 34 34 33 32 32 32 31 30 30 30 30 30 30 30 29 30 31 31 31 31 30 30 30 30 30
37 36 36 36 37 37 37 37 36 35 34 34 34 33 33 32 31 30 30 29 29 29 29 29 29 29 29 29 30 30 31 30 30 29 29 29 29 29
35 35 35 36 36 36 36 36 35 34 33 33 32 32 32 30 29 28 28 28 28 29 29 29 29 28 29 29 29 29 29 29 29 28 28 29 29 29
34 34 35 35 35 35 34 34 33 33 32 32 31 30 29 29 27 26 26 26 27 28 28 28 28 28 28 28 29 29 28 27 27 28 28 28 27 26
33 33 33 33 33 33 32 31 31 31 31 30 29 28 28 27 26 26 26 27 27 27 26 27 27 27 27 28 28 27 26 27 27 27 27 27 26 26
Wind_Direction
317 316 314 314 314 312 310 310 307 305 303 302 300 298 298 297 296 292 291 292 291 288 286 284 285 286 286 285 284 283 284 283 282 281 279 275 275 277
314 313 312 312 311 311 309 307 306 305 303 302 301 298 297 296 296 293 290 289 290 289 286 285 285 284 285 284 283 283 284 284 281 279 278 276 274 275
312 312 311 310 309 309 307 306 304 302 302 300 299 296 295 296 295 293 291 288 288 287 286 287 287 285 284 283 283 281 281 280 279 277 277 276 274 274
310 310 309 309 308 306 306 305 303 302 301 298 297 295 294 293 293 292 292 290 287 286 285 286 286 285 284 282 282 281 279 276 276 277 276 275 276 276
309 309 308 306 306 304 303 302 301 300 298 296 295 293 293 293 292 290 289 290 289 287 286 285 286 286 285 282 280 280 277 274 274 274 274 275 275 276
308 308 306 306 306 304 302 301 300 299 299 297 294 293 291 291 291 289 287 287 287 286 285 285 286 286 286 283 280 278 276 275 274 274 274 274 274 274
306 305 305 304 305 305 303 302 300 299 298 297 296 295 292 290 289 289 287 286 287 286 285 285 285 284 284 281 278 278 277 275 274 273 272 273 273 273
305 305 304 303 304 302 301 301 300 300 299 299 297 297 296 292 289 288 288 286 285 284 284 284 283 282 282 282 280 278 276 275 274 272 271 271 273 273
302 302 303 303 303 302 301 301 300 299 298 297 296 296 295 294 292 289 288 288 286 284 283 283 283 282 281 281 281 279 277 275 274 272 270 269 272 272
301 300 301 302 301 300 299 298 298 298 297 296 296 295 294 294 292 291 289 288 286 283 282 282 282 282 282 281 279 278 276 274 273 273 271 270 272 273
299 299 299 299 299 299 298 297 297 296 296 295 295 294 293 293 291 289 289 288 287 285 283 281 280 280 281 280 278 278 276 275 274 273 272 271 270 271
297 297 297 297 297 298 298 298 297 296 294 294 293 293 293 293 292 290 290 289 287 285 283 280 279 279 280 278 277 278 277 275 274 274 273 272 271 271
296 295 295 295 296 297 297 297 297 296 295 294 293 293 292 292 290 289 289 288 288 286 284 281 280 279 279 277 277 277 277 276 276 275 274 273 273 271
297 296 295 295 295 295 295 296 296 295 295 294 295 294 294 292 291 290 288 287 286 286 284 282 280 279 277 276 276 276 276 276 277 276 275 275 274 273
297 296 296 296 295 295 295 294 294 294 294 294 294 293 292 292 291 289 288 287 286 285 284 282 281 279 279 279 277 276 277 277 277 276 275 274 274 273
296 297 297 296 295 295 294 293 293 294 294 293 293 291 290 289 289 288 287 288 287 285 284 282 281 280 279 278 276 275 275 277 277 276 275 274 273 273
297 297 297 297 296 295 295 294 294 294 293 293 292 291 290 289 288 287 288 287 286 284 283 281 279 278 278 277 275 275 275 276 277 276 275 274 273 271
298 298 298 297 296 296 295 294 295 295 294 293 291 291 289 289 288 287 286 286 286 284 284 282 279 277 276 275 276 276 275 276 276 275 274 273 273 272
298 299 298 298 298 296 295 294 295 295 294 294 292 291 290 289 289 288 286 286 285 285 283 283 282 279 277 275 275 276 276 277 276 276 274 273 274 273
298 298 298 299 299 297 295 295 295 295 294 294 293 291 290 289 287 286 286 285 285 285 283 284 283 281 279 278 277 277 276 276 276 277 276 275 274 275
297 297 298 299 299 298 297 296 295 294 294 294 293 291 290 288 286 286 286 286 286 284 284 284 285 284 283 280 278 277 277 275 274 275 277 276 275 274
297 297 297 299 299 298 297 297 297 295 294 293 292 292 291 289 288 286 286 287 287 286 285 285 285 284 285 284 281 278 275 275 275 276 277 278 277 273
299 299 299 299 300 299 299 298 297 296 294 293 294 293 291 290 288 285 285 286 288 288 287 287 287 286 287 285 282 279 276 276 275 276 277 276 276 274